Houghton, MI

1:59 AM EDT on March 26, 2017 (GMT -0400)
Houghton County Memorial

Weather History for KCMX - May, 2014

Change the Weather History Date:

Wednesday, May 14, 2014

  Actual Average Record
Temperature  
Mean Temperature 42 °F -  
Max Temperature 48 °F 58 °F 79 °F (1955)
Min Temperature 35 °F 39 °F 29 °F (1953)
Degree Days  
Heating Degree Days 23    
Moisture  
Dew Point 29 °F    
Average Humidity 56    
Maximum Humidity 76    
Minimum Humidity 42    
Precipitation  
Precipitation 0.00 in - - ()
Sea Level Pressure  
Sea Level Pressure 30.17 in    
Wind  
Wind Speed 13 mph (WNW)    
Max Wind Speed 20 mph    
Max Gust Speed 25 mph    
Visibility 10 miles    
Events      
Averages and records for this station are not official NWS values.
T = Trace of Precipitation, MM = Missing Value Source: NWS Daily Summary

Daily Weather History Graph

Daily Weather History Graph

Search for Another Location

Airport or City:

Trip Planner

Search our weather history database for the weather conditions in past years. The results will help you decide how hot, cold, wet, or windy it might be!

Date:

Astronomy

May. 14, 2014 Rise Set
Actual Time 6:19 AM EDT 9:22 PM EDT
Civil Twilight 5:43 AM EDT 9:58 PM EDT
Nautical Twilight 4:56 AM EDT 10:45 PM EDT
Astronomical Twilight 4:00 AM EDT 11:42 PM EDT
Moon 9:25 PM EDT (5/14) 6:21 AM EDT (5/14)
Length of Visible Light 16h 15m
Length of Day
15h 02m
Full, 100% of the Moon is Illuminated
May 14
Full
May 14
Full
May 21
Last Quarter
May 28
New
Jun 5
First Quarter

Hourly Weather History & Observations

Time (EDT) Temp. Windchill Dew Point Humidity Pressure Visibility Wind Dir Wind Speed Gust Speed Precip Events Conditions
12:53 AM 42.1 °F 35.7 °F 32.0 °F 67% 30.05 in 10.0 mi West 11.5 mph - N/A   Clear
1:53 AM 41.0 °F 35.2 °F 30.9 °F 67% 30.05 in 10.0 mi West 9.2 mph - N/A   Clear
2:53 AM 39.9 °F 32.9 °F 30.0 °F 68% 30.05 in 10.0 mi West 11.5 mph - N/A   Clear
7:53 AM 41.0 °F 34.7 °F 32.0 °F 70% 30.10 in 10.0 mi West 10.4 mph - N/A   Clear
8:53 AM 44.1 °F 36.8 °F 33.1 °F 65% 30.13 in 10.0 mi West 16.1 mph - N/A   Clear
9:53 AM 45.0 °F 37.6 °F 33.1 °F 63% 30.15 in 10.0 mi WNW 17.3 mph - N/A   Partly Cloudy
11:53 AM 46.9 °F - 28.9 °F 50% 30.18 in 10.0 mi West 18.4 mph 25.3 mph N/A   Clear
12:53 PM 48.0 °F - 30.9 °F 52% 30.17 in 10.0 mi WNW 19.6 mph - N/A   Clear
1:53 PM 46.9 °F - 28.9 °F 50% 30.21 in 10.0 mi West 19.6 mph - N/A   Clear
2:53 PM 48.0 °F - 26.1 °F 42% 30.22 in 10.0 mi West 18.4 mph - N/A   Clear
3:53 PM 48.9 °F - 27.0 °F 43% 30.19 in 10.0 mi West 17.3 mph - N/A   Clear
4:53 PM 48.0 °F - 26.1 °F 42% 30.20 in 10.0 mi WNW 17.3 mph 24.2 mph N/A   Clear
5:53 PM 48.0 °F - 26.1 °F 42% 30.20 in 10.0 mi WNW 19.6 mph - N/A   Clear
6:53 PM 46.9 °F - 26.1 °F 44% 30.20 in 10.0 mi WNW 17.3 mph - N/A   Clear
7:53 PM 46.0 °F 40.2 °F 26.1 °F 46% 30.21 in 10.0 mi WNW 12.7 mph - N/A   Clear
8:53 PM 43.0 °F 37.7 °F 26.1 °F 51% 30.20 in 10.0 mi NW 9.2 mph - N/A   Clear
9:53 PM 39.9 °F 36.7 °F 27.0 °F 60% 30.20 in 10.0 mi NNW 4.6 mph - N/A   Clear
10:53 PM 36.0 °F 32.1 °F 27.0 °F 70% 30.23 in 10.0 mi NNW 4.6 mph - N/A   Clear
11:53 PM 35.1 °F 30.1 °F 28.0 °F 76% 30.22 in 10.0 mi NW 5.8 mph - N/A   Clear